Terug naar catalogus

ONEWEB-0093

ActiefCommunicatiePO
NORAD 45444·PAYLOAD·🇬🇧 United Kingdom

Gelanceerd Mar 21, 2020 vanaf Baikonur Cosmodrome

Loading…

Volgende Passages (komende 24 uur)

TLE

VersSource: CelesTrak SupGP

Epoch: Sep 15, 2026, 01:18 UTC

1 45444C 20020W   26258.05434444  .00001027  00000+0  29001-2 0  2587
2 45444  87.8984   3.2046 0002095 100.3546 306.1770 13.11418617    15

Volg ONEWEB-0093 in realtime met AllMySat

Download on the App Store